Location: Dammartin
(48.9032°N, 1.6195°E)
Time: 14:36:34
(UTC+00:00)

YUBILEINY - Pass Details

Date: 11 December 2023
Orbit: 1479 x 1508 km, 82.5° (Epoch: 02 March)

Event Time Altitude Azimuth Distance (km) Brightness Sun altitude
Rises 16:27:30 0° 351° (N) 4,630 ? -5.1°
Reaches altitude 10° 16:33:52 10° 25° (NNE) 3,638 ? -6.1°
Maximum altitude 16:36:06 11° 40° (NE) 3,551 ? -6.4°
Drops below altitude 10° 16:38:20 10° 56° (NE) 3,631 ? -6.7°
Enters shadow 16:40:19 - 68° (ENE) 3,834 ? -7.0°
